Content
SEND FEEDBACK

Daily
Averages
Monthly
Summary
Mexico

CANCUN, QUINTANA ROO


Home > North America > Mexico > Quintana Roo
Elevation: 30 feet     Latitude: 21 09N     Longitude: 086 49W

WEATHER
 
SELECT A DAY
Number of Records: 163,931;   Date Range: 1/1/95 - 8/31/14
 
SHARE

PRINT THIS DATA

[ ← Previous Day ]
WEATHER ALMANAC - FEBRUARY 14, 2013
[ Next Day → ]
[ °C ]   °F
Weather ElementAverageHighLow
Temperature80.4 °F86 °F (11:40 am)77 °F (2:44 am)
Dewpoint71.4 °F73.4 °F (1:42 am)69.8 °F (9:48 am)
Humidity74.7 %83 % (1:42 am)58 % (11:40 am)
Barometer29.91 in29.97 in (9:48 am)29.88 in (2:44 am)
Wind Speed9.2 mph17.3 mph (10:41 am)
Wind Gust24.2 mph (2:45 pm)
Weather ElementAverage
Visibility7 mi
Wind DirectionSSE (157 °)

Weather ElementTotal
Precipitation---
Cooling Degree Days16.5 (Base 65)
Growing Degree Days31.5 (Base 50)
Averaged from 23 records on February 14, 2013
WEATHER CONDITIONS BREAKOUT
WIND DIRECTION BREAKOUT
WEATHER BY HOUR - FEBRUARY 14, 2013
[ °C ]   °F
Local TimeTemperatureDewpointHumidityBarometerVisibilityWind DirectionWind SpeedGust SpeedPrecipitationEventsConditions
1:42 AM78.8 °F73.4 °F83 %29.89 in7.0 miSE (140°)10.4 mphScattered Clouds
2:44 AM77.0 °F71.6 °F83 %29.88 in7.0 miSSE (150°)8.1 mphScattered Clouds
3:45 AM77.0 °F71.6 °F83 %29.88 in7.0 miSE (140°)5.8 mphScattered Clouds
4:40 AM77.0 °F71.6 °F83 %29.88 in7.0 miSSE (150°)8.1 mphScattered Clouds
5:43 AM77.0 °F71.6 °F83 %29.89 in7.0 miSSE (150°)9.2 mphScattered Clouds
6:46 AM77.0 °F71.6 °F83 %29.92 in7.0 miSouth (180°)4.6 mphScattered Clouds
7:41 AM78.8 °F73.4 °F83 %29.95 in7.0 miSSE (160°)8.1 mphScattered Clouds
8:43 AM80.6 °F73.4 °F79 %29.96 in7.0 miSE (140°)5.8 mphScattered Clouds
9:48 AM82.4 °F69.8 °F66 %29.97 in7.0 miSouth (170°)6.9 mphScattered Clouds
10:41 AM84.2 °F69.8 °F62 %29.96 in7.0 miSouth (170°)17.3 mphScattered Clouds
11:40 AM86.0 °F69.8 °F58 %29.95 in7.0 miSSE (160°)15.0 mphScattered Clouds
12:43 PM86.0 °F69.8 °F58 %29.91 in7.0 miSouth (170°)15.0 mphScattered Clouds
1:41 PM86.0 °F71.6 °F62 %29.89 in7.0 miSSE (160°)11.5 mphScattered Clouds
2:45 PM86.0 °F69.8 °F58 %29.89 in7.0 miSouth (180°)12.7 mph24.2 mphScattered Clouds
3:42 PM84.2 °F73.4 °F70 %29.88 in7.0 miSSE (160°)13.8 mphScattered Clouds
4:44 PM82.4 °F71.6 °F70 %29.88 in7.0 miSSE (160°)16.1 mphPartly Cloudy
5:49 PM80.6 °F73.4 °F79 %29.88 in7.0 miSSE (160°)11.5 mphScattered Clouds
6:44 PM78.8 °F73.4 °F83 %29.89 in7.0 miSSE (150°)10.4 mphScattered Clouds
7:45 PM78.8 °F69.8 °F74 %29.91 in7.0 miSouth (170°)6.9 mphMostly Cloudy
8:46 PM78.8 °F69.8 °F74 %29.93 in7.0 miWest (270°)2.3 mphMostly Cloudy
9:48 PM77.0 °F69.8 °F78 %29.93 in7.0 miCalmMostly Cloudy
10:47 PM77.0 °F71.6 °F83 %29.93 in7.0 miSSE (160°)5.8 mphMostly Cloudy
11:46 PM77.0 °F71.6 °F83 %29.91 in7.0 miSSE (160°)5.8 mphMostly Cloudy
Hourly data recorded from MMUN, located miles away from Cancun, Quintana Roo







STORIES FROM OUR PARTNERS